SL-16 DEB, 22293

Orbit data source: Space-Track

SL-16 DEB, 22293 is space debris in LEO originally from a launch on Fri, 25 Dec 1992 UTC launched from the Tyuratam Missile And Space Complex (TTMTR). Debris objects in space refer to the collection of defunct objects orbiting the Earth. Examples of debris include non-operational satellites, rocket bodies, and fragments generated from explosions, collisions, or faulty payload assembly.

Loading next visibility...
Identifier
22293, 1992-093H
Orbit
LEO
Country
Flag of CISCIS
Related business
Manufacturer
Yuzhnoe
Mission
Spacecraft
Bus & Motor
SEP MOTOR COVER, Unknown motor
Mass
~0 kg wet, ~1 kg dry
Launch date (UTC)
1992-12-25 (33 years ago)
Launch vehicle
Unknown
Launch site
Tyuratam Missile And Space Complex (TTMTR)
Object type
Payload
Rocket body
Debris
Shape & HBR
Unknown shape, 0.2 m
Radar Cross Section
Small (<0.1 m²)

Expand to show TLE details & history
Last TLE update: 18 hours ago

TLE from 18 hours ago
0 SL-16 DEB
1 22293U 92093H   25347.68546770  .00000287  00000-0  30183-3 0  9990
2 22293  71.0557  93.8504 0195668 159.0946 201.8301 13.74662101647118
Epoch: 2025-12-13T16:27Z
TLE epoch observation values (Epoch: 2025-12-13T16:27:04.409Z)
Latitude
0.00004°
Longitude
124.47285°
Altitude
1,119.342 km
Speed
7.226 km/s
True Right ascension
06h 15m 24s
True Declination
0° 00' 00"
Sunlit
Object was in full shadow at epoch
Visualization orbit readout
Latitude
Unknown
Longitude
Unknown
Altitude
Unknown
Speed
Unknown
Apparent Right ascension
Unknown
Apparent Declination
Unknown
Sunlit
N/A
Visualization observer readout
Local Sidereal Time
09:18:20
Azimuth
Unknown
Elevation
Unknown
Doppler factor
Unknown
Orbital elements
Apogee altitude
1,124.831 km
Perigee altitude
836.847 km
Semi-major axis
7,358.976 km
Eccentricity
0.01957
Inclination
71.0557°
RAAN
93.8504°
Arg. of periapsis
159.0946°
True anomaly
201.01488°
Mean anomaly
201.8301°
Eccentric anomaly
201.42066°
Mean motion
3.43809 °/min
Orbital period
104.71 mins
BSTAR
0.00030183
Loading maneuver chart data...
Computing Atmospheric mass density...
Loading historical data...
Loading historical data...
Loading historical data...
Loading historical data...
Loading historical data...
Loading historical data...
Loading historical data...

Documentation

Showing up to 5 results
|